Вернуться в каталог

STARLINK-31562

АктивенСвязьVLEO
NORAD 59340·PAYLOAD·🇺🇸 United States

Запущен Mar 25, 2024 с Cape Canaveral Space Force Station

Loading…

Ближайшие Пролёты (ближайшие 24 часа)

TLE

СвежийSource: CelesTrak SupGP

Эпоха: Sep 15, 2026, 02:32 UTC

1 59340C 24057W   26258.10604167 -.00056142  00000+0 -20336-2 0  2580
2 59340  42.9996 212.3349 0001184 268.0019 131.9290 15.27604104    12

Отслеживайте STARLINK-31562 в реальном времени с AllMySat

Download on the App Store